Rochester, NH

8:49 AM EDT on October 22, 2017 (GMT -0400)
Skyhaven

Weather History for KDAW - January, 2014

Change the Weather History Date:

Tuesday, January 28, 2014

  Actual Average (KPSM) Record (KPSM)
Temperature  
Mean Temperature 12 °F -  
Max Temperature 17 °F 30 °F 60 °F (1974)
Min Temperature 7 °F 14 °F -13 °F (1987)
Degree Days  
Heating Degree Days 53    
Moisture  
Dew Point -8 °F    
Average Humidity 40    
Maximum Humidity 64    
Minimum Humidity 30    
Precipitation  
Precipitation 0.00 in - - ()
Sea Level Pressure  
Sea Level Pressure 30.17 in    
Wind  
Wind Speed 7 mph (WNW)    
Max Wind Speed 12 mph    
Max Gust Speed 21 mph    
Visibility 10 miles    
Events      
Averages and records for this station are not official NWS values.
T = Trace of Precipitation, MM = Missing Value Source: NWS Daily Summary

Daily Weather History Graph

Daily Weather History Graph

Search for Another Location

Airport or City:

Trip Planner

Search our weather history database for the weather conditions in past years. The results will help you decide how hot, cold, wet, or windy it might be!

Date:

Astronomy

Jan. 28, 2014 Rise Set
Actual Time 7:03 AM EST 4:50 PM EST
Civil Twilight 6:32 AM EST 5:20 PM EST
Nautical Twilight 5:58 AM EST 5:55 PM EST
Astronomical Twilight 5:24 AM EST 6:28 PM EST
Moon 4:43 AM EST (1/28) 2:36 PM EST (1/28)
Length of Visible Light 10h 48m
Length of Day
9h 46m
Waning Crescent, 7% of the Moon is Illuminated
Jan 28
Waning Crescent
Jan 30
New
Feb 6
First Quarter
Feb 14
Full
Feb 22
Last Quarter

Hourly Weather History & Observations

Time (EST) Temp. Windchill Dew Point Humidity Pressure Visibility Wind Dir Wind Speed Gust Speed Precip Events Conditions
12:51 AM 16.0 °F 2.9 °F -7.1 °F 36% 29.95 in 10.0 mi WNW 11.5 mph 20.7 mph N/A   Clear
1:51 AM 15.1 °F 5.2 °F -7.1 °F 37% 29.98 in 10.0 mi Variable 6.9 mph - N/A   Clear
2:51 AM 12.9 °F 3.8 °F -8.0 °F 39% 30.00 in 10.0 mi Variable 5.8 mph - N/A   Clear
3:51 AM 10.9 °F -1.8 °F -9.0 °F 40% 30.03 in 10.0 mi WNW 9.2 mph - N/A   Clear
4:51 AM 10.0 °F -1.9 °F -9.0 °F 42% 30.06 in 10.0 mi West 8.1 mph - N/A   Clear
5:51 AM 9.0 °F 0.6 °F -9.0 °F 44% 30.10 in 10.0 mi Variable 4.6 mph - N/A   Clear
6:51 AM 7.0 °F 0.1 °F -8.0 °F 51% 30.15 in 10.0 mi Variable 3.5 mph - N/A   Scattered Clouds
7:51 AM 8.1 °F -2.0 °F -2.0 °F 64% 30.18 in 10.0 mi West 5.8 mph - N/A   Clear
8:51 AM 10.0 °F 1.8 °F -5.1 °F 51% 30.21 in 10.0 mi Variable 4.6 mph - N/A   Clear
9:51 AM 10.9 °F -0.8 °F -8.0 °F 42% 30.22 in 10.0 mi West 8.1 mph - N/A   Clear
10:51 AM 12.9 °F -0.2 °F -9.0 °F 37% 30.23 in 10.0 mi West 10.4 mph 17.3 mph N/A   Clear
11:51 AM 15.1 °F 5.2 °F -9.9 °F 32% 30.21 in 10.0 mi Variable 6.9 mph - N/A   Clear
12:51 PM 16.0 °F 2.9 °F -9.9 °F 31% 30.20 in 10.0 mi West 11.5 mph 18.4 mph N/A   Clear
1:51 PM 16.0 °F 4.4 °F -9.9 °F 31% 30.19 in 10.0 mi NW 9.2 mph - N/A   Clear
2:51 PM 17.1 °F 8.7 °F -9.9 °F 30% 30.19 in 10.0 mi Variable 5.8 mph - N/A   Clear
3:51 PM 17.1 °F 10.0 °F -9.9 °F 30% 30.20 in 10.0 mi Variable 4.6 mph - N/A   Clear
4:51 PM 16.0 °F 10.4 °F -8.0 °F 34% 30.24 in 10.0 mi Variable 3.5 mph - N/A   Clear
5:51 PM 15.1 °F - -7.1 °F 37% 30.25 in 10.0 mi Calm Calm - N/A   Clear
6:51 PM 14.0 °F - -8.0 °F 37% 30.26 in 10.0 mi Calm Calm - N/A   Clear
7:51 PM 14.0 °F 8.2 °F -8.0 °F 37% 30.25 in 10.0 mi West 3.5 mph - N/A   Clear
8:51 PM 12.9 °F - -6.0 °F 43% 30.25 in 10.0 mi Calm Calm - N/A   Clear
9:51 PM 12.9 °F - -6.0 °F 43% 30.25 in 10.0 mi Calm Calm - N/A   Clear
10:51 PM 12.9 °F - -5.1 °F 45% 30.21 in 10.0 mi Calm Calm - N/A   Clear
11:51 PM 12.9 °F - -6.0 °F 43% 30.17 in 10.0 mi Calm Calm - N/A   Partly Cloudy